This demonstration page uses our WeatherBlox Daily Observations layout. Learn more.

Left ArrowRight Arrow

Hourly Observations for September 12, 2018

Temp ( °F °C ) Dew Point ( °F °C ) Humidity (%) Winds ( mph kmh ) Pressure ( in mb ) Visibility ( mi km ) Precip ( " mm )
12:57 am 00:57 Clear 65 18.3 60 15.6 84 84 S 12 19 29.93 1014 10 16 0.00 0.00
1:57 am 01:57 Clear 64 17.8 60 15.6 87 87 S 10 17 29.93 1014 10 16 0.00 0.00
2:57 am 02:57 Clear 63 17.2 59 15 87 87 S 9 15 29.93 1013 10 16 0.00 0.00
3:57 am 03:57 Clear 62 16.7 59 15 90 90 S 10 17 29.93 1013 10 16 0.00 0.00
4:57 am 04:57 Clear 61 16.1 59 15 93 93 S 9 15 29.93 1014 10 16 0.00 0.00
5:57 am 05:57 Clear 61 16.1 59 15 93 93 SSE 10 17 29.92 1013 10 16 0.00 0.00
6:57 am 06:57 Clear 60 15.6 59 15 96 96 S 12 19 29.93 1014 10 16 0.00 0.00
7:57 am 07:57 Sunny 61 16.1 59 15 93 93 SSE 12 19 29.95 1014 10 16 0.00 0.00
8:18 am 08:18 Mostly Sunny 63 17 61 16 94 94 SSE 13 20 29.94 1014 10 16 0.00 0.00
8:57 am 08:57 Partly Cloudy 64 17.8 61 16.1 90 90 S 15 24 29.95 1014 10 16 0.00 0.00
9:17 am 09:17 Mostly Cloudy 66 19 63 17 88 88 S 15 24 29.94 1014 10 16 0.00 0.00
9:49 am 09:49 Partly Cloudy 68 20 63 17 83 83 S 17 28 29.91 1013 10 16 0.00 0.00
9:57 am 09:57 Mostly Sunny 68 20 62 16.7 81 81 S 20 31 29.95 1014 10 16 0.00 0.00
10:57 am 10:57 Sunny 74 23.3 64 17.8 71 71 SSE 18 30 29.94 1014 10 16 0.00 0.00
11:57 am 11:57 Sunny 76 24.4 64 17.8 67 67 SSE 20 31 29.93 1014 10 16 0.00 0.00
12:57 pm 12:57 Sunny 79 26.1 64 17.8 60 60 S 24 39 29.91 1013 10 16 0.00 0.00
1:57 pm 13:57 Sunny 80 26.7 65 18.3 60 60 SSE 22 35 29.90 1013 10 16 0.00 0.00
2:57 pm 14:57 Sunny 80 26.7 64 17.8 58 58 S 21 33 29.89 1012 10 16 0.00 0.00
3:57 pm 15:57 Sunny 80 26.7 65 18.3 60 60 SSE 22 35 29.88 1012 10 16 0.00 0.00
4:57 pm 16:57 Mostly Sunny 79 26.1 65 18.3 62 62 SSE 20 31 29.88 1012 10 16 0.00 0.00
5:57 pm 17:57 Mostly Sunny 78 25.6 65 18.3 64 64 SSE 20 31 29.87 1011 10 16 0.00 0.00
6:57 pm 18:57 Mostly Sunny 76 24.4 64 17.8 67 67 SSE 20 31 29.87 1012 10 16 0.00 0.00
7:57 pm 19:57 Clear 73 22.8 63 17.2 71 71 SSE 17 28 29.88 1012 10 16 0.00 0.00
8:57 pm 20:57 Clear 70 21.1 64 17.8 82 82 SE 15 24 29.88 1012 10 16 0.00 0.00
9:57 pm 21:57 Clear 69 20.6 63 17.2 81 81 SSE 18 30 29.88 1012 10 16 0.00 0.00
10:57 pm 22:57 Clear 69 20.6 63 17.2 81 81 SSE 20 31 29.88 1012 10 16 0.00 0.00
11:57 pm 23:57 Clear 68 20 64 17.8 87 87 SSE 17 28 29.89 1012 10 16 0.00 0.00

Powered by AerisWeather